THY94E EETN-LTFM

Flight info

Callsign THY94E
Flight time N/A
Altitude 34000
Route ORTAX1T DCT LUTAL DCT BERIL/N0447F330 DCT SUDAB DCT BOKSU/N0448F340 M857 BULEP DCT GERVI M857 PODAN/N0446F350 DCT ROBTU/N0446F340 DCT HATIP/N0447F350 DCT KENIN DCT TUMOP DCT BUVAK DCT VABUR L605 RIXEN1A
Aircraft A321/M-SDE2E3FGHIRWY/LB1

Departure

Time 2026-04-27 13:40
Airport Lennart Meri Tallinn Airport (EETN)

Arrival

Time N/A
Airport İstanbul Airport (LTFM)
Time Latitude Longitude Altitude Speed Heading
2026-04-27 13:04 59.41582 24.80134 162 ft 0 kts
2026-04-27 13:27 59.41566 24.80134 162 ft 4 kts
2026-04-27 13:27 59.41541 24.80126 162 ft 4 kts 39°
2026-04-27 13:28 59.41530 24.80086 162 ft 4 kts 88°
2026-04-27 13:28 59.41529 24.80075 162 ft 0 kts 90°
2026-04-27 13:30 59.41529 24.80085 162 ft 1 kts 90°
2026-04-27 13:31 59.41529 24.80106 162 ft 2 kts 90°
2026-04-27 13:31 59.41529 24.80141 162 ft 3 kts 90°
2026-04-27 13:31 59.41529 24.80199 162 ft 5 kts 90°
2026-04-27 13:31 59.41528 24.80280 162 ft 7 kts 90°
2026-04-27 13:32 59.41527 24.80383 162 ft 8 kts 91°
2026-04-27 13:32 59.41517 24.80504 162 ft 10 kts 102°
2026-04-27 13:32 59.41507 24.80647 162 ft 11 kts 91°
2026-04-27 13:32 59.41506 24.80812 162 ft 13 kts 90°
2026-04-27 13:33 59.41506 24.80996 162 ft 14 kts 90°
2026-04-27 13:33 59.41505 24.81196 162 ft 15 kts 90°
2026-04-27 13:33 59.41505 24.81416 162 ft 17 kts 90°
2026-04-27 13:33 59.41504 24.81651 162 ft 18 kts 90°
2026-04-27 13:34 59.41503 24.81904 162 ft 19 kts 90°
2026-04-27 13:34 59.41502 24.82169 162 ft 20 kts 91°
2026-04-27 13:34 59.41501 24.82449 162 ft 20 kts 89°
2026-04-27 13:34 59.41501 24.82675 162 ft 16 kts 90°
2026-04-27 13:35 59.41501 24.82901 162 ft 17 kts 90°
2026-04-27 13:35 59.41500 24.83140 162 ft 18 kts 90°
2026-04-27 13:35 59.41499 24.83397 162 ft 19 kts 90°
2026-04-27 13:35 59.41500 24.83667 162 ft 20 kts 89°
2026-04-27 13:36 59.41502 24.83950 162 ft 21 kts 89°
2026-04-27 13:36 59.41502 24.84246 162 ft 22 kts 92°
2026-04-27 13:36 59.41496 24.84553 162 ft 23 kts 91°
2026-04-27 13:36 59.41495 24.84870 162 ft 24 kts 90°
2026-04-27 13:37 59.41495 24.85196 162 ft 24 kts 90°
2026-04-27 13:37 59.41494 24.85530 162 ft 25 kts 90°
2026-04-27 13:37 59.41493 24.85868 162 ft 25 kts 90°
2026-04-27 13:37 59.41492 24.86217 162 ft 26 kts 90°
2026-04-27 13:38 59.41491 24.86475 162 ft 15 kts 90°
2026-04-27 13:38 59.41480 24.86670 162 ft 14 kts 127°
2026-04-27 13:38 59.41404 24.86711 162 ft 12 kts 177°
2026-04-27 13:38 59.41324 24.86693 162 ft 11 kts 219°
2026-04-27 13:39 59.41316 24.86511 160 ft 18 kts 271°
2026-04-27 13:39 59.41318 24.85833 162 ft 83 kts 270°
2026-04-27 13:39 59.41321 24.84286 161 ft 141 kts 270°
2026-04-27 13:39 59.41327 24.82083 228 ft 179 kts 270°
2026-04-27 13:40 59.41336 24.79695 941 ft 172 kts 270°
2026-04-27 13:40 59.41323 24.77356 1627 ft 171 kts 261°
2026-04-27 13:40 59.40709 24.75388 2054 ft 180 kts 213°
2026-04-27 13:40 59.39511 24.74318 2206 ft 200 kts 201°
2026-04-27 13:41 59.38130 24.73337 2331 ft 221 kts 200°
2026-04-27 13:41 59.36603 24.72268 2455 ft 246 kts 200°
2026-04-27 13:41 59.34938 24.71071 2895 ft 260 kts 200°
2026-04-27 13:41 59.33234 24.69805 3563 ft 264 kts 201°
2026-04-27 13:42 59.31531 24.68506 4268 ft 268 kts 201°
2026-04-27 13:42 59.29789 24.67156 4943 ft 271 kts 202°
2026-04-27 13:42 59.28029 24.65780 5600 ft 274 kts 202°
2026-04-27 13:42 59.26251 24.64383 6230 ft 277 kts 202°
2026-04-27 13:43 59.24455 24.62967 6848 ft 280 kts 202°
2026-04-27 13:43 59.22639 24.61536 7449 ft 283 kts 202°
2026-04-27 13:43 59.20802 24.60091 8032 ft 286 kts 202°
2026-04-27 13:43 59.18949 24.58633 8600 ft 289 kts 202°
2026-04-27 13:44 59.17078 24.57163 9141 ft 291 kts 202°
2026-04-27 13:44 59.15212 24.55703 9660 ft 294 kts 202°
2026-04-27 13:44 59.13301 24.54210 10125 ft 300 kts 202°
2026-04-27 13:44 59.11307 24.52652 10245 ft 317 kts 202°
2026-04-27 13:45 59.09209 24.51017 10370 ft 333 kts 202°
2026-04-27 13:45 59.07013 24.49309 10499 ft 347 kts 202°
2026-04-27 13:45 59.04724 24.47530 10642 ft 360 kts 202°
2026-04-27 13:45 59.02381 24.45704 10967 ft 366 kts 202°
2026-04-27 13:46 59.00009 24.43858 11365 ft 369 kts 202°
2026-04-27 13:46 58.97622 24.42007 11763 ft 371 kts 202°
2026-04-27 13:46 58.95245 24.40173 12146 ft 374 kts 202°
2026-04-27 13:46 58.92820 24.38303 12525 ft 376 kts 202°
2026-04-27 13:47 58.90380 24.36425 12895 ft 379 kts 202°
2026-04-27 13:47 58.87924 24.34535 13255 ft 381 kts 202°
2026-04-27 13:47 58.85446 24.32661 13600 ft 384 kts 199°
2026-04-27 13:47 58.82866 24.31317 13930 ft 386 kts 193°
2026-04-27 13:48 58.80235 24.30166 14255 ft 388 kts 193°
2026-04-27 13:48 58.77593 24.29017 14574 ft 390 kts 193°
2026-04-27 13:48 58.74939 24.27862 14879 ft 392 kts 193°
2026-04-27 13:48 58.72304 24.26709 15172 ft 394 kts 193°
2026-04-27 13:49 58.69623 24.25532 15463 ft 396 kts 193°
2026-04-27 13:49 58.66927 24.24343 15748 ft 398 kts 193°
2026-04-27 13:49 58.64220 24.23150 16031 ft 400 kts 193°
2026-04-27 13:49 58.61497 24.21957 16302 ft 402 kts 193°
2026-04-27 13:50 58.58758 24.20766 16569 ft 404 kts 193°
2026-04-27 13:50 58.56009 24.19581 16830 ft 406 kts 193°
2026-04-27 13:50 58.53247 24.18391 17082 ft 408 kts 193°
2026-04-27 13:50 58.50475 24.17193 17330 ft 410 kts 193°
2026-04-27 13:51 58.47686 24.15992 17573 ft 411 kts 193°
2026-04-27 13:51 58.44928 24.14809 17806 ft 413 kts 193°
2026-04-27 13:51 58.42114 24.13599 18038 ft 415 kts 193°
2026-04-27 13:51 58.39298 24.12386 18262 ft 416 kts 193°
2026-04-27 13:52 58.36465 24.11166 18482 ft 418 kts 193°
2026-04-27 13:52 58.33624 24.09943 18698 ft 420 kts 193°
2026-04-27 13:52 58.30770 24.08719 18910 ft 421 kts 193°
2026-04-27 13:52 58.27905 24.07495 19124 ft 423 kts 193°
2026-04-27 13:53 58.22143 24.05046 19519 ft 426 kts 193°
2026-04-27 13:53 58.19286 24.03837 19703 ft 427 kts 193°
2026-04-27 13:53 58.16381 24.02607 19880 ft 429 kts 193°
2026-04-27 13:54 58.13463 24.01372 20051 ft 430 kts 193°
2026-04-27 13:54 58.10542 24.00138 20214 ft 431 kts 193°
2026-04-27 13:54 58.07610 23.98898 20371 ft 432 kts 193°
2026-04-27 13:54 58.04668 23.97652 20522 ft 434 kts 193°
2026-04-27 13:55 58.01722 23.96407 20662 ft 435 kts 193°
2026-04-27 13:55 57.98768 23.95164 20797 ft 436 kts 193°
2026-04-27 13:55 57.95841 23.93939 20924 ft 437 kts 193°
2026-04-27 13:55 57.92873 23.92698 21049 ft 438 kts 193°
2026-04-27 13:56 57.89896 23.91453 21176 ft 438 kts 192°
2026-04-27 13:56 57.86904 23.90299 21300 ft 439 kts 191°
2026-04-27 13:56 57.83896 23.89270 21426 ft 440 kts 190°
2026-04-27 13:56 57.80880 23.88318 21550 ft 440 kts 189°
2026-04-27 13:57 57.77858 23.87393 21675 ft 440 kts 189°
2026-04-27 13:57 57.74834 23.86460 21799 ft 440 kts 189°
2026-04-27 13:57 57.71809 23.85504 21923 ft 441 kts 190°
2026-04-27 13:57 57.68790 23.84531 22047 ft 441 kts 190°
2026-04-27 13:58 57.65810 23.83557 22170 ft 441 kts 190°
2026-04-27 13:58 57.62792 23.82561 22294 ft 440 kts 190°
2026-04-27 13:58 57.59775 23.81563 22419 ft 440 kts 190°
2026-04-27 13:58 57.56756 23.80571 22543 ft 440 kts 190°
2026-04-27 13:59 57.53744 23.79590 22668 ft 440 kts 190°
2026-04-27 13:59 57.50729 23.78612 22792 ft 440 kts 190°
2026-04-27 13:59 57.47715 23.77641 22917 ft 439 kts 190°
2026-04-27 13:59 57.44705 23.76674 23041 ft 439 kts 190°
2026-04-27 14:00 57.41740 23.75720 23164 ft 438 kts 190°
2026-04-27 14:00 57.38736 23.74745 23288 ft 438 kts 190°
2026-04-27 14:00 57.35736 23.73772 23413 ft 438 kts 190°
2026-04-27 14:00 57.32736 23.72802 23537 ft 437 kts 190°
2026-04-27 14:01 57.29743 23.71842 23662 ft 437 kts 190°
2026-04-27 14:01 57.26746 23.70885 23787 ft 436 kts 190°
2026-04-27 14:01 57.23759 23.69932 23912 ft 436 kts 190°
2026-04-27 14:01 57.20814 23.68992 24035 ft 435 kts 190°
2026-04-27 14:02 57.17834 23.68039 24160 ft 435 kts 190°
2026-04-27 14:02 57.14857 23.67087 24285 ft 434 kts 190°
2026-04-27 14:02 57.11883 23.66139 24410 ft 433 kts 190°
2026-04-27 14:02 57.08912 23.65197 24535 ft 433 kts 190°
2026-04-27 14:03 57.05945 23.64257 24660 ft 432 kts 190°
2026-04-27 14:03 57.02983 23.63319 24785 ft 432 kts 190°
2026-04-27 14:03 57.00025 23.62385 24910 ft 431 kts 190°
2026-04-27 14:03 56.97070 23.61454 25035 ft 431 kts 190°
2026-04-27 14:04 56.94156 23.60536 25158 ft 430 kts 190°
2026-04-27 14:04 56.91209 23.59610 25283 ft 430 kts 190°
2026-04-27 14:04 56.88265 23.58685 25408 ft 429 kts 190°
2026-04-27 14:04 56.85327 23.57762 25532 ft 428 kts 190°
2026-04-27 14:05 56.82388 23.56842 25658 ft 428 kts 190°
2026-04-27 14:05 56.79453 23.55932 25783 ft 427 kts 189°
2026-04-27 14:05 56.76525 23.55026 25907 ft 427 kts 190°
2026-04-27 14:05 56.73635 23.54132 26030 ft 427 kts 190°
2026-04-27 14:06 56.70713 23.53228 26155 ft 426 kts 190°
2026-04-27 14:06 56.67786 23.52323 26280 ft 426 kts 190°
2026-04-27 14:06 56.64872 23.51421 26405 ft 425 kts 190°
2026-04-27 14:06 56.61955 23.50517 26530 ft 425 kts 190°
2026-04-27 14:07 56.59043 23.49611 26655 ft 424 kts 190°
2026-04-27 14:07 56.56134 23.48710 26780 ft 424 kts 190°
2026-04-27 14:07 56.53225 23.47815 26905 ft 424 kts 189°
2026-04-27 14:07 56.50321 23.46924 27030 ft 423 kts 189°
2026-04-27 14:08 56.47460 23.46049 27153 ft 423 kts 189°
2026-04-27 14:08 56.44561 23.45164 27278 ft 422 kts 189°
2026-04-27 14:08 56.41668 23.44280 27402 ft 422 kts 189°
2026-04-27 14:08 56.38775 23.43399 27527 ft 421 kts 189°
2026-04-27 14:09 56.35889 23.42543 27652 ft 421 kts 188°
2026-04-27 14:09 56.32986 23.41882 27777 ft 420 kts 186°
2026-04-27 14:09 56.30077 23.41406 27902 ft 420 kts 185°
2026-04-27 14:09 56.27166 23.41035 28027 ft 419 kts 184°
2026-04-27 14:10 56.24257 23.40692 28151 ft 418 kts 184°
2026-04-27 14:10 56.21355 23.40336 28276 ft 418 kts 184°
2026-04-27 14:10 56.18500 23.39954 28399 ft 417 kts 185°
2026-04-27 14:10 56.15611 23.39534 28524 ft 416 kts 185°
2026-04-27 14:11 56.12728 23.39096 28648 ft 415 kts 185°
2026-04-27 14:11 56.09850 23.38650 28773 ft 414 kts 185°
2026-04-27 14:11 56.06982 23.38204 28898 ft 413 kts 185°
2026-04-27 14:11 56.04120 23.37764 29023 ft 412 kts 185°
2026-04-27 14:12 56.01265 23.37333 29147 ft 411 kts 185°
2026-04-27 14:12 55.98423 23.36907 29272 ft 410 kts 185°
2026-04-27 14:12 55.95579 23.36483 29397 ft 409 kts 185°
2026-04-27 14:12 55.92752 23.36061 29521 ft 407 kts 185°
2026-04-27 14:13 55.89967 23.35646 29644 ft 406 kts 185°
2026-04-27 14:13 55.87157 23.35228 29769 ft 405 kts 185°
2026-04-27 14:13 55.84355 23.34815 29893 ft 403 kts 185°
2026-04-27 14:13 55.81568 23.34403 30017 ft 402 kts 185°
2026-04-27 14:14 55.78787 23.33994 30142 ft 400 kts 185°
2026-04-27 14:14 55.76021 23.33586 30266 ft 398 kts 185°
2026-04-27 14:14 55.73264 23.33178 30390 ft 397 kts 185°
2026-04-27 14:14 55.70523 23.32710 30514 ft 395 kts 186°
2026-04-27 14:15 55.67804 23.32178 30639 ft 393 kts 187°
2026-04-27 14:15 55.65096 23.31616 30763 ft 390 kts 187°
2026-04-27 14:15 55.62441 23.31058 30886 ft 388 kts 187°
2026-04-27 14:15 55.59766 23.30502 31009 ft 386 kts 187°
2026-04-27 14:16 55.57107 23.29962 31133 ft 384 kts 187°
2026-04-27 14:16 55.54460 23.29437 31258 ft 381 kts 186°
2026-04-27 14:16 55.51838 23.28920 31381 ft 379 kts 186°
2026-04-27 14:16 55.49226 23.28407 31505 ft 376 kts 186°
2026-04-27 14:17 55.46636 23.27904 31629 ft 373 kts 186°
2026-04-27 14:17 55.44069 23.27410 31753 ft 370 kts 186°
2026-04-27 14:17 55.41523 23.26922 31876 ft 367 kts 186°
2026-04-27 14:17 55.39030 23.26441 31998 ft 363 kts 186°
2026-04-27 14:18 55.36526 23.25955 32121 ft 360 kts 186°
2026-04-27 14:18 55.34055 23.25474 32244 ft 356 kts 186°
2026-04-27 14:18 55.31610 23.24997 32367 ft 351 kts 186°
2026-04-27 14:18 55.29193 23.24528 32489 ft 347 kts 186°
2026-04-27 14:19 55.26814 23.24066 32611 ft 342 kts 186°
2026-04-27 14:19 55.21985 23.23124 31655 ft 372 kts 187°
2026-04-27 14:19 55.19333 23.22589 30995 ft 392 kts 187°
2026-04-27 14:20 55.16611 23.22023 30510 ft 408 kts 187°
2026-04-27 14:20 55.13733 23.21451 29991 ft 424 kts 186°
2026-04-27 14:20 55.10766 23.20898 29694 ft 433 kts 186°
2026-04-27 14:20 55.07755 23.20355 29553 ft 437 kts 186°
2026-04-27 14:21 55.04715 23.19806 29426 ft 442 kts 186°
2026-04-27 14:21 55.01646 23.19240 29301 ft 445 kts 186°
2026-04-27 14:21 54.98551 23.18654 29176 ft 449 kts 186°
2026-04-27 14:21 54.95429 23.18052 29051 ft 453 kts 186°
2026-04-27 14:22 54.92330 23.17454 28928 ft 456 kts 186°
2026-04-27 14:22 54.89165 23.16843 28803 ft 460 kts 186°
2026-04-27 14:22 54.85972 23.16233 28678 ft 463 kts 186°
2026-04-27 14:22 54.82762 23.15625 28553 ft 466 kts 186°
2026-04-27 14:23 54.79528 23.15015 28428 ft 469 kts 186°
2026-04-27 14:23 54.76270 23.14405 28303 ft 472 kts 186°
2026-04-27 14:23 54.72991 23.13792 28178 ft 475 kts 186°
2026-04-27 14:23 54.69696 23.13176 28053 ft 478 kts 186°
2026-04-27 14:24 54.66378 23.12555 27959 ft 480 kts 186°
2026-04-27 14:24 54.63117 23.11942 28078 ft 477 kts 186°
2026-04-27 14:24 54.59825 23.11321 28198 ft 474 kts 186°
2026-04-27 14:24 54.56560 23.10707 28320 ft 471 kts 186°
2026-04-27 14:25 54.53308 23.10101 28443 ft 469 kts 186°
2026-04-27 14:25 54.50074 23.09500 28566 ft 466 kts 186°
2026-04-27 14:25 54.46863 23.08901 28689 ft 463 kts 186°
2026-04-27 14:25 54.43668 23.08305 28812 ft 460 kts 186°
2026-04-27 14:26 54.40491 23.07715 28937 ft 458 kts 186°
2026-04-27 14:26 54.37375 23.07139 29060 ft 455 kts 186°
2026-04-27 14:26 54.34195 23.06551 29185 ft 453 kts 186°
2026-04-27 14:26 54.31136 23.05749 29308 ft 449 kts 193°
2026-04-27 14:27 54.28157 23.04203 29433 ft 446 kts 201°
2026-04-27 14:27 54.25277 23.02259 29558 ft 444 kts 201°
2026-04-27 14:27 54.22410 23.00326 29681 ft 442 kts 201°
2026-04-27 14:27 54.19557 22.98413 29806 ft 439 kts 201°
2026-04-27 14:28 54.16722 22.96518 29930 ft 437 kts 201°
2026-04-27 14:28 54.13895 22.94636 30054 ft 435 kts 201°
2026-04-27 14:28 54.11085 22.92771 30179 ft 433 kts 201°
2026-04-27 14:28 54.08328 22.90938 30301 ft 431 kts 201°
2026-04-27 14:29 54.05471 22.89442 30427 ft 428 kts 193°
2026-04-27 14:29 54.02570 22.88345 30551 ft 427 kts 193°
2026-04-27 14:29 53.99680 22.87247 30674 ft 425 kts 193°
2026-04-27 14:29 53.96803 22.86150 30799 ft 423 kts 193°
2026-04-27 14:30 53.93935 22.85058 30923 ft 421 kts 193°
2026-04-27 14:30 53.91079 22.83979 31048 ft 420 kts 193°
2026-04-27 14:30 53.88235 22.82905 31172 ft 418 kts 193°
2026-04-27 14:30 53.85401 22.81832 31297 ft 416 kts 193°
2026-04-27 14:31 53.82619 22.80777 31419 ft 415 kts 193°
2026-04-27 14:31 53.79808 22.79712 31544 ft 413 kts 193°
2026-04-27 14:31 53.77010 22.78654 31668 ft 411 kts 193°
2026-04-27 14:31 53.74228 22.77604 31792 ft 409 kts 193°
2026-04-27 14:32 53.71455 22.76558 31917 ft 407 kts 193°
2026-04-27 14:32 53.68701 22.75523 32041 ft 405 kts 193°
2026-04-27 14:32 53.65959 22.74497 32165 ft 402 kts 193°
2026-04-27 14:32 53.63235 22.73482 32289 ft 400 kts 193°
2026-04-27 14:33 53.60523 22.72468 32413 ft 398 kts 193°
2026-04-27 14:33 53.57831 22.71457 32537 ft 395 kts 193°
2026-04-27 14:33 53.55192 22.70466 32659 ft 392 kts 193°
2026-04-27 14:33 53.52539 22.69475 32783 ft 390 kts 193°
2026-04-27 14:34 53.49902 22.68495 32907 ft 387 kts 193°
2026-04-27 14:34 53.47288 22.67527 33030 ft 383 kts 192°
2026-04-27 14:34 53.44694 22.66568 33154 ft 380 kts 193°
2026-04-27 14:34 53.42123 22.65617 33277 ft 376 kts 193°
2026-04-27 14:35 53.39578 22.64676 33400 ft 373 kts 193°
2026-04-27 14:35 53.37063 22.63746 33523 ft 369 kts 193°
2026-04-27 14:35 53.34605 22.62837 33645 ft 364 kts 193°
2026-04-27 14:35 53.32146 22.61930 33767 ft 360 kts 193°
2026-04-27 14:36 53.29725 22.61037 33930 ft 353 kts 193°
2026-04-27 14:36 53.27248 22.60123 33020 ft 380 kts 193°
2026-04-27 14:36 53.24582 22.59138 32309 ft 402 kts 192°
2026-04-27 14:36 53.21824 22.58126 32071 ft 409 kts 192°
2026-04-27 14:37 53.19025 22.57100 31980 ft 413 kts 192°
2026-04-27 14:37 53.13429 22.55048 31886 ft 419 kts 192°
2026-04-27 14:37 53.10572 22.54004 31764 ft 423 kts 192°
2026-04-27 14:38 53.07679 22.52950 31640 ft 428 kts 192°
2026-04-27 14:38 53.04755 22.51888 31515 ft 432 kts 192°
2026-04-27 14:38 53.01804 22.50817 31390 ft 436 kts 192°
2026-04-27 14:38 52.98829 22.49735 31266 ft 440 kts 192°
2026-04-27 14:39 52.95823 22.48643 31141 ft 444 kts 192°
2026-04-27 14:39 52.92798 22.47548 31016 ft 447 kts 192°
2026-04-27 14:39 52.89788 22.46457 30893 ft 451 kts 192°
2026-04-27 14:39 52.86713 22.45343 30768 ft 454 kts 192°
2026-04-27 14:40 52.83618 22.44222 30643 ft 457 kts 192°
2026-04-27 14:40 52.80498 22.43092 30518 ft 460 kts 192°
2026-04-27 14:40 52.77360 22.41961 30393 ft 463 kts 192°
2026-04-27 14:40 52.74202 22.40829 30268 ft 466 kts 192°
2026-04-27 14:41 52.71023 22.39695 30115 ft 470 kts 192°
2026-04-27 14:41 52.67815 22.38550 29969 ft 472 kts 192°
2026-04-27 14:41 52.64609 22.37405 30011 ft 471 kts 192°
2026-04-27 14:42 52.58244 22.35135 30009 ft 471 kts 192°
2026-04-27 14:42 52.51840 22.32864 30009 ft 471 kts 192°
2026-04-27 14:43 52.45441 22.30598 30009 ft 470 kts 192°
2026-04-27 14:43 52.39046 22.28336 30009 ft 470 kts 192°
2026-04-27 14:44 52.32700 22.26098 30009 ft 469 kts 192°
2026-04-27 14:44 52.26317 22.23859 30009 ft 469 kts 192°
2026-04-27 14:45 52.19936 22.21630 30009 ft 469 kts 192°
2026-04-27 14:45 52.13553 22.19424 30009 ft 469 kts 191°
2026-04-27 14:46 52.07186 22.17482 30009 ft 468 kts 190°
2026-04-27 14:46 52.00764 22.15676 30009 ft 468 kts 190°
2026-04-27 14:47 51.94348 22.13836 30009 ft 468 kts 190°
2026-04-27 14:47 51.87945 22.11949 30009 ft 468 kts 191°
2026-04-27 14:48 51.81540 22.10047 30009 ft 468 kts 191°
2026-04-27 14:48 51.71979 22.07250 30009 ft 468 kts 190°
2026-04-27 14:49 51.65574 22.05396 30009 ft 468 kts 190°
2026-04-27 14:49 51.59174 22.03536 30009 ft 467 kts 190°
2026-04-27 14:50 51.52770 22.01675 30009 ft 467 kts 190°
2026-04-27 14:50 51.46416 21.99844 30009 ft 467 kts 190°
2026-04-27 14:51 51.40018 21.98003 30009 ft 467 kts 190°
2026-04-27 14:51 51.34696 21.96504 30010 ft 467 kts 190°
2026-04-27 14:52 51.27206 21.94448 30009 ft 467 kts 190°
2026-04-27 14:52 51.20844 21.92705 30009 ft 467 kts 190°
2026-04-27 14:53 51.14436 21.90939 30009 ft 467 kts 190°
2026-04-27 14:53 51.08037 21.89151 30009 ft 467 kts 190°
2026-04-27 14:54 51.01635 21.87344 30009 ft 467 kts 190°
2026-04-27 14:54 50.95238 21.85549 30009 ft 467 kts 190°
2026-04-27 14:55 50.88879 21.83780 30009 ft 467 kts 190°
2026-04-27 14:55 50.82477 21.81997 30009 ft 467 kts 190°
2026-04-27 14:56 50.76072 21.80215 30009 ft 467 kts 190°
2026-04-27 14:56 50.69669 21.78444 30009 ft 467 kts 190°
2026-04-27 14:57 50.63309 21.76692 30009 ft 467 kts 190°
2026-04-27 14:57 50.56906 21.74934 30009 ft 467 kts 190°
2026-04-27 14:58 50.50498 21.73182 30009 ft 467 kts 190°
2026-04-27 14:58 50.44095 21.71427 30009 ft 467 kts 190°
2026-04-27 14:59 50.37734 21.69688 30009 ft 467 kts 190°
2026-04-27 14:59 50.31328 21.67941 30009 ft 467 kts 190°
2026-04-27 15:00 50.24922 21.66208 30009 ft 467 kts 190°
2026-04-27 15:00 50.18512 21.64473 30009 ft 467 kts 190°
2026-04-27 15:01 50.12153 21.62741 30009 ft 467 kts 190°
2026-04-27 15:01 50.05741 21.61013 30009 ft 467 kts 190°
2026-04-27 15:02 49.99325 21.59297 30009 ft 468 kts 190°
2026-04-27 15:02 49.92957 21.57593 30009 ft 468 kts 190°
2026-04-27 15:03 49.86544 21.55876 30009 ft 468 kts 190°
2026-04-27 15:03 49.80130 21.54166 30009 ft 468 kts 190°
2026-04-27 15:04 49.73707 21.52459 30009 ft 468 kts 190°
2026-04-27 15:04 49.67291 21.50758 30009 ft 468 kts 190°
2026-04-27 15:05 49.60909 21.49081 30009 ft 468 kts 189°
2026-04-27 15:05 49.54487 21.47392 30009 ft 468 kts 190°
2026-04-27 15:06 49.48062 21.45702 30009 ft 468 kts 190°
2026-04-27 15:06 49.41574 21.45387 30009 ft 468 kts 172°
2026-04-27 15:07 49.35391 21.48200 30010 ft 469 kts 154°
2026-04-27 15:07 49.29515 21.52531 30009 ft 469 kts 155°
2026-04-27 15:08 49.23619 21.56817 30009 ft 469 kts 155°
2026-04-27 15:08 49.17721 21.61090 30009 ft 469 kts 155°
2026-04-27 15:09 49.11823 21.65356 30009 ft 469 kts 155°
2026-04-27 15:09 49.05961 21.69598 30009 ft 470 kts 155°
2026-04-27 15:10 49.00053 21.73856 30009 ft 470 kts 155°
2026-04-27 15:10 48.94039 21.77717 30008 ft 469 kts 165°
2026-04-27 15:11 48.87588 21.78771 30009 ft 468 kts 185°
2026-04-27 15:11 48.81292 21.76482 30010 ft 467 kts 202°
2026-04-27 15:12 48.75069 21.74160 30010 ft 467 kts 182°
2026-04-27 15:12 48.68656 21.75406 30009 ft 467 kts 163°
2026-04-27 15:13 48.62527 21.78651 30009 ft 467 kts 161°
2026-04-27 15:13 48.56397 21.81920 30009 ft 467 kts 161°
2026-04-27 15:14 48.50305 21.85166 30009 ft 467 kts 161°
2026-04-27 15:14 48.44175 21.88450 30009 ft 468 kts 161°
2026-04-27 15:15 48.38069 21.91830 30007 ft 468 kts 156°
2026-04-27 15:15 48.32562 21.97007 30010 ft 468 kts 142°
2026-04-27 15:16 48.27482 22.03033 30009 ft 468 kts 142°
2026-04-27 15:16 48.22364 22.09079 30009 ft 469 kts 142°
2026-04-27 15:17 48.17236 22.15127 30009 ft 469 kts 142°
2026-04-27 15:17 48.12109 22.21166 30009 ft 469 kts 142°
2026-04-27 15:18 48.06975 22.27195 30009 ft 469 kts 142°
2026-04-27 15:18 48.01864 22.33173 30009 ft 470 kts 142°
2026-04-27 15:19 47.96717 22.39181 30009 ft 470 kts 142°
2026-04-27 15:19 47.91563 22.45173 30009 ft 470 kts 142°
2026-04-27 15:20 47.86402 22.51169 30009 ft 470 kts 142°
2026-04-27 15:20 47.81277 22.57118 30009 ft 470 kts 142°
2026-04-27 15:21 47.76105 22.63090 30009 ft 471 kts 142°
2026-04-27 15:21 47.70928 22.69039 30009 ft 471 kts 142°
2026-04-27 15:22 47.65747 22.74992 30009 ft 471 kts 142°
2026-04-27 15:22 47.60565 22.80945 30009 ft 471 kts 142°
2026-04-27 15:23 47.55377 22.86881 30073 ft 470 kts 142°
2026-04-27 15:23 47.52841 22.89777 30316 ft 464 kts 142°
2026-04-27 15:23 47.50302 22.92674 30561 ft 458 kts 142°
2026-04-27 15:24 47.47793 22.95536 30808 ft 453 kts 142°
2026-04-27 15:24 47.45307 22.98366 30969 ft 450 kts 143°
2026-04-27 15:24 47.40345 23.03992 31009 ft 450 kts 143°
2026-04-27 15:25 47.35361 23.09621 31009 ft 452 kts 143°
2026-04-27 15:25 47.30401 23.15224 31009 ft 453 kts 143°
2026-04-27 15:26 47.25391 23.20877 31009 ft 454 kts 143°
2026-04-27 15:26 47.20364 23.26530 31009 ft 455 kts 143°
2026-04-27 15:27 47.15322 23.32181 31009 ft 456 kts 143°
2026-04-27 15:27 47.10264 23.37834 31009 ft 457 kts 143°
2026-04-27 15:28 47.05231 23.43462 31009 ft 458 kts 143°
2026-04-27 15:28 47.00150 23.49118 31009 ft 459 kts 143°
2026-04-27 15:29 46.95056 23.54772 31009 ft 460 kts 143°
2026-04-27 15:29 46.89952 23.60422 31009 ft 461 kts 143°
2026-04-27 15:30 46.84870 23.66035 31009 ft 461 kts 143°
2026-04-27 15:30 46.79748 23.71678 31009 ft 462 kts 143°
2026-04-27 15:31 46.74610 23.77322 31009 ft 462 kts 143°
2026-04-27 15:31 46.69474 23.82963 31009 ft 463 kts 143°
2026-04-27 15:32 46.65197 23.87653 31009 ft 463 kts 143°
2026-04-27 15:32 46.59206 23.94193 31009 ft 464 kts 143°
2026-04-27 15:33 46.54039 23.99813 31009 ft 464 kts 143°
2026-04-27 15:33 46.49740 24.04481 31009 ft 464 kts 143°
2026-04-27 15:34 46.44559 24.10090 31009 ft 465 kts 143°
2026-04-27 15:34 46.39381 24.15700 31009 ft 465 kts 143°
2026-04-27 15:35 46.34189 24.21297 31009 ft 465 kts 143°
2026-04-27 15:35 46.28993 24.26892 31009 ft 466 kts 143°
2026-04-27 15:36 46.23826 24.32441 31009 ft 466 kts 143°
2026-04-27 15:36 46.18613 24.38016 31009 ft 466 kts 144°
2026-04-27 15:37 46.13400 24.43583 31009 ft 467 kts 143°
2026-04-27 15:37 46.08179 24.49154 31009 ft 467 kts 144°
2026-04-27 15:38 46.02987 24.54677 31009 ft 467 kts 144°
2026-04-27 15:38 45.97758 24.60223 31009 ft 467 kts 144°
2026-04-27 15:39 45.92521 24.65758 31009 ft 468 kts 144°
2026-04-27 15:39 45.87280 24.71298 31009 ft 468 kts 144°
2026-04-27 15:40 45.82069 24.76793 31009 ft 468 kts 144°
2026-04-27 15:40 45.76816 24.82307 31009 ft 468 kts 144°
2026-04-27 15:41 45.71557 24.87817 31009 ft 468 kts 144°
2026-04-27 15:41 45.66299 24.93318 31010 ft 469 kts 144°
2026-04-27 15:42 45.61072 24.98785 31009 ft 469 kts 144°
2026-04-27 15:42 45.55799 25.04278 31009 ft 469 kts 144°
2026-04-27 15:43 45.50518 25.09744 31009 ft 469 kts 144°
2026-04-27 15:43 45.45232 25.15205 31008 ft 469 kts 144°
2026-04-27 15:44 45.39948 25.20664 31009 ft 469 kts 144°
2026-04-27 15:44 45.34662 25.26114 31009 ft 470 kts 144°
2026-04-27 15:45 45.29404 25.31531 31009 ft 470 kts 144°
2026-04-27 15:45 45.24110 25.36961 31009 ft 470 kts 144°
2026-04-27 15:46 45.18797 25.42391 31009 ft 470 kts 144°
2026-04-27 15:46 45.13487 25.47809 31009 ft 471 kts 144°
2026-04-27 15:47 45.08214 25.53198 31009 ft 471 kts 144°
2026-04-27 15:47 45.02900 25.58611 31009 ft 471 kts 144°
2026-04-27 15:48 44.97572 25.64003 31009 ft 471 kts 144°
2026-04-27 15:49 44.89581 25.72062 31009 ft 471 kts 144°
2026-04-27 15:49 44.84254 25.77433 31009 ft 471 kts 144°
2026-04-27 15:50 44.78964 25.82769 31009 ft 471 kts 144°
2026-04-27 15:50 44.73635 25.88122 31009 ft 471 kts 145°
2026-04-27 15:51 44.68295 25.93449 31009 ft 471 kts 145°
2026-04-27 15:51 44.62957 25.98785 31009 ft 471 kts 145°
2026-04-27 15:52 44.57659 26.04072 31009 ft 471 kts 145°
2026-04-27 15:52 44.52319 26.09392 31009 ft 471 kts 145°
2026-04-27 15:53 44.46974 26.14695 31009 ft 471 kts 145°
2026-04-27 15:53 44.41624 26.19987 31009 ft 471 kts 145°
2026-04-27 15:54 44.36271 26.25270 31009 ft 471 kts 145°
2026-04-27 15:54 44.30948 26.30495 31009 ft 471 kts 146°
2026-04-27 15:55 44.25458 26.35479 31009 ft 471 kts 148°
2026-04-27 15:55 44.19871 26.40246 31009 ft 471 kts 149°
2026-04-27 15:56 44.14295 26.45032 31009 ft 471 kts 148°
2026-04-27 15:57 44.02987 26.54939 31009 ft 471 kts 148°
2026-04-27 15:57 43.97446 26.59781 31009 ft 471 kts 148°
2026-04-27 15:58 43.91896 26.64605 31009 ft 471 kts 148°
2026-04-27 15:58 43.86380 26.69386 31009 ft 471 kts 148°
2026-04-27 15:59 43.80830 26.74196 31009 ft 471 kts 148°
2026-04-27 15:59 43.75274 26.78995 31009 ft 471 kts 148°
2026-04-27 16:00 43.69715 26.83781 31009 ft 471 kts 148°
2026-04-27 16:00 43.67873 26.85364 31009 ft 471 kts 148°